• In Germany
  • List of Countries
  • For 7 days
  • Water Temperature
  • Satellite Maps
  • Weather Map
  • Weather Widgets
  • user-avatar
    Login

    Hourly Weather Lezhe

    Today, 29 May, Monday

    Time Temperature Precipitation Wind Pressure Humidity
    00:00 +13°C° 0 mm 3 mps 740 mmHg 80%
    01:00 +13°C° 0 mm 3 mps 740 mmHg 81%
    02:00 +13°C° 0 mm 3 mps 740 mmHg 82%
    03:00 +13°C° 0 mm 3 mps 739 mmHg 83%
    04:00 +12°C° 0 mm 3 mps 739 mmHg 84%
    05:00 +14°C° 0 mm 3 mps 739 mmHg 77%
    06:00 +17°C° 0 mm 2 mps 739 mmHg 71%
    07:00 +19°C° 0 mm 3 mps 739 mmHg 61%
    08:00 +21°C° 0 mm 2 mps 739 mmHg 55%
    09:00 +24°C° 0 mm 2 mps 739 mmHg 48%
    10:00 +26°C° 0 mm 1 mps 739 mmHg 41%
    11:00 +26°C° 0 mm 2 mps 739 mmHg 40%
    12:00 +27°C° 0 mm 2 mps 738 mmHg 39%
    13:00 +26°C° 0 mm 3 mps 738 mmHg 41%
    14:00 +26°C° 0 mm 3 mps 738 mmHg 43%
    15:00 +26°C° 0 mm 3 mps 738 mmHg 44%
    16:00 +25°C° 0 mm 3 mps 738 mmHg 46%
    17:00 +23°C° 0 mm 2 mps 737 mmHg 57%
    18:00 +19°C° 0 mm 2 mps 737 mmHg 69%
    19:00 +17°C° 0 mm 2 mps 737 mmHg 80%
    20:00 +16°C° 0 mm 1 mps 737 mmHg 81%
    21:00 +15°C° 0 mm 1 mps 737 mmHg 82%
    22:00 +14°C° 0 mm 1 mps 738 mmHg 82%
    23:00 +14°C° 0 mm 1 mps 738 mmHg 82%

    Tomorrow, 30 May, Tuesday

    Time Temperature Precipitation Wind Pressure Humidity
    00:00 +14°C° 0 mm 1 mps 738 mmHg 82%
    01:00 +13°C° 0 mm 1 mps 737 mmHg 82%
    02:00 +13°C° 0 mm 1 mps 737 mmHg 83%
    03:00 +13°C° 0 mm 1 mps 737 mmHg 84%
    04:00 +11°C° 0 mm 0 mps 737 mmHg 84%
    05:00 +14°C° 0 mm 0 mps 737 mmHg 76%
    06:00 +17°C° 0 mm 0 mps 738 mmHg 67%
    07:00 +20°C° 0 mm 0 mps 738 mmHg 58%
    08:00 +24°C° 0 mm 1 mps 738 mmHg 54%
    09:00 +25°C° 0 mm 1 mps 738 mmHg 49%
    10:00 +26°C° 0 mm 1 mps 738 mmHg 45%
    11:00 +27°C° 0 mm 2 mps 738 mmHg 45%
    12:00 +27°C° 0 mm 2 mps 738 mmHg 44%
    13:00 +27°C° 0 mm 3 mps 738 mmHg 44%
    14:00 +27°C° 0.1 mm 3 mps 738 mmHg 47%
    15:00 +26°C° 0.1 mm 2 mps 738 mmHg 49%
    16:00 +25°C° 0.1 mm 2 mps 738 mmHg 52%
    17:00 +23°C° 0.1 mm 2 mps 738 mmHg 62%
    18:00 +21°C° 0.1 mm 1 mps 738 mmHg 72%
    19:00 +18°C° 0.1 mm 1 mps 738 mmHg 82%
    20:00 +16°C° 0 mm 1 mps 739 mmHg 83%
    21:00 +15°C° 0 mm 1 mps 739 mmHg 84%
    22:00 +14°C° 0 mm 1 mps 740 mmHg 85%
    23:00 +14°C° 0 mm 1 mps 740 mmHg 85%

    Day after tomorrow, 31 May, Wednesday

    Time Temperature Precipitation Wind Pressure Humidity
    00:00 +14°C° 0 mm 1 mps 740 mmHg 84%
    01:00 +13°C° 0 mm 1 mps 739 mmHg 84%
    02:00 +13°C° 0 mm 1 mps 739 mmHg 84%
    03:00 +13°C° 0 mm 1 mps 739 mmHg 84%
    04:00 +13°C° 0 mm 1 mps 739 mmHg 84%
    05:00 +15°C° 0 mm 1 mps 740 mmHg 75%
    06:00 +19°C° 0 mm 1 mps 740 mmHg 66%
    07:00 +22°C° 0 mm 1 mps 740 mmHg 57%
    08:00 +24°C° 0 mm 1 mps 740 mmHg 52%
    09:00 +25°C° 0 mm 1 mps 740 mmHg 47%
    10:00 +27°C° 0 mm 1 mps 740 mmHg 42%
    11:00 +27°C° 0 mm 2 mps 740 mmHg 42%
    12:00 +28°C° 0 mm 2 mps 740 mmHg 41%
    13:00 +29°C° 0 mm 3 mps 740 mmHg 40%
    14:00 +28°C° 0 mm 2 mps 739 mmHg 43%
    15:00 +27°C° 0 mm 2 mps 739 mmHg 46%
    16:00 +27°C° 0 mm 2 mps 739 mmHg 50%
    17:00 +24°C° 0 mm 2 mps 739 mmHg 61%
    18:00 +21°C° 0 mm 1 mps 739 mmHg 73%
    19:00 +19°C° 0 mm 1 mps 739 mmHg 84%
    20:00 +18°C° 0 mm 1 mps 739 mmHg 84%
    21:00 +15°C° 0 mm 0 mps 740 mmHg 85%
    22:00 +14°C° 0 mm 0 mps 740 mmHg 85%
    23:00 +14°C° 0 mm 0 mps 740 mmHg 84%

    1 June, Thursday

    Time Temperature Precipitation Wind Pressure Humidity
    00:00 +14°C° 0 mm 0 mps 740 mmHg 84%
    01:00 +14°C° 0 mm 0 mps 740 mmHg 84%
    02:00 +14°C° 0 mm 0 mps 739 mmHg 84%
    03:00 +13°C° 0 mm 0 mps 739 mmHg 84%
    04:00 +13°C° 0 mm 0 mps 739 mmHg 85%
    05:00 +16°C° 0 mm 0 mps 740 mmHg 75%
    06:00 +19°C° 0 mm 0 mps 740 mmHg 66%
    07:00 +22°C° 0 mm 0 mps 740 mmHg 56%
    08:00 +26°C° 0 mm 1 mps 740 mmHg 53%
    09:00 +27°C° 0 mm 1 mps 740 mmHg 49%
    10:00 +29°C° 0 mm 1 mps 740 mmHg 46%
    11:00 +29°C° 0.1 mm 2 mps 740 mmHg 46%
    12:00 +29°C° 0.1 mm 2 mps 740 mmHg 46%
    13:00 +30°C° 0.1 mm 3 mps 739 mmHg 46%
    14:00 +29°C° 0.2 mm 3 mps 739 mmHg 48%
    15:00 +28°C° 0.2 mm 2 mps 739 mmHg 51%
    16:00 +28°C° 0.2 mm 2 mps 739 mmHg 53%
    17:00 +25°C° 0.2 mm 2 mps 739 mmHg 64%
    18:00 +23°C° 0.2 mm 1 mps 739 mmHg 75%
    19:00 +20°C° 0.2 mm 1 mps 739 mmHg 86%
    20:00 +19°C° 0.1 mm 1 mps 739 mmHg 86%
    21:00 +16°C° 0.1 mm 0 mps 739 mmHg 87%
    22:00 +15°C° 0.1 mm 0 mps 740 mmHg 88%
    23:00 +15°C° 0 mm 0 mps 739 mmHg 88%

    2 June, Friday

    Time Temperature Precipitation Wind Pressure Humidity
    00:00 +15°C° 0 mm 0 mps 739 mmHg 88%
    01:00 +14°C° 0 mm 0 mps 739 mmHg 89%
    02:00 +14°C° 0 mm 0 mps 739 mmHg 89%
    03:00 +14°C° 0 mm 0 mps 739 mmHg 90%
    04:00 +14°C° 0 mm 0 mps 739 mmHg 90%
    05:00 +17°C° 0 mm 0 mps 739 mmHg 82%
    06:00 +20°C° 0 mm 0 mps 739 mmHg 74%
    07:00 +23°C° 0 mm 0 mps 739 mmHg 65%
    08:00 +26°C° 0.1 mm 1 mps 739 mmHg 61%
    09:00 +28°C° 0.1 mm 1 mps 739 mmHg 56%
    10:00 +29°C° 0.1 mm 2 mps 739 mmHg 51%
    11:00 +30°C° 0.4 mm 2 mps 739 mmHg 51%
    12:00 +30°C° 0.4 mm 2 mps 739 mmHg 51%
    13:00 +30°C° 0.4 mm 2 mps 738 mmHg 51%
    14:00 +30°C° 0.3 mm 2 mps 738 mmHg 53%
    15:00 +29°C° 0.3 mm 2 mps 738 mmHg 54%
    16:00 +29°C° 0.3 mm 2 mps 738 mmHg 56%
    17:00 +26°C° 0.2 mm 2 mps 738 mmHg 66%
    18:00 +23°C° 0.2 mm 1 mps 737 mmHg 77%
    19:00 +21°C° 0.2 mm 1 mps 737 mmHg 88%
    20:00 +20°C° 0.1 mm 1 mps 737 mmHg 89%
    21:00 +17°C° 0.1 mm 0 mps 738 mmHg 91%
    22:00 +16°C° 0.1 mm 0 mps 738 mmHg 92%
    23:00 +15°C° 0 mm 0 mps 737 mmHg 92%

    3 June, Saturday

    Time Temperature Precipitation Wind Pressure Humidity
    00:00 +15°C° 0 mm 0 mps 737 mmHg 92%
    01:00 +15°C° 0 mm 0 mps 737 mmHg 92%
    02:00 +15°C° 0 mm 0 mps 737 mmHg 92%
    03:00 +15°C° 0 mm 0 mps 737 mmHg 92%
    04:00 +15°C° 0 mm 0 mps 737 mmHg 92%
    05:00 +17°C° 0 mm 0 mps 737 mmHg 84%
    06:00 +20°C° 0 mm 0 mps 737 mmHg 76%
    07:00 +23°C° 0 mm 0 mps 737 mmHg 68%
    08:00 +27°C° 0.1 mm 1 mps 737 mmHg 62%
    09:00 +28°C° 0.1 mm 1 mps 737 mmHg 55%
    10:00 +29°C° 0.1 mm 1 mps 737 mmHg 49%
    11:00 +30°C° 0.2 mm 2 mps 737 mmHg 49%
    12:00 +30°C° 0.2 mm 2 mps 737 mmHg 48%
    13:00 +30°C° 0.2 mm 3 mps 736 mmHg 47%
    14:00 +29°C° 0.3 mm 3 mps 736 mmHg 50%
    15:00 +29°C° 0.3 mm 3 mps 736 mmHg 52%
    16:00 +28°C° 0.3 mm 3 mps 736 mmHg 55%
    17:00 +26°C° 0.3 mm 2 mps 736 mmHg 66%
    18:00 +23°C° 0.3 mm 1 mps 736 mmHg 76%
    19:00 +20°C° 0.3 mm 1 mps 736 mmHg 87%
    20:00 +19°C° 0.2 mm 1 mps 736 mmHg 88%
    21:00 +19°C° 0.2 mm 1 mps 736 mmHg 90%
    22:00 +16°C° 0.2 mm 0 mps 737 mmHg 91%
    23:00 +15°C° 0.1 mm 0 mps 737 mmHg 91%
    Show more